This demonstration page uses our WeatherBlox Daily Observations layout. Learn more.

Left ArrowRight Arrow

Hourly Observations for July 21, 2020

Temp ( °F °C ) Dew Point ( °F °C ) Humidity (%) Winds ( mph kmh ) Pressure ( in mb ) Visibility ( mi km ) Precip ( " mm )
12:37 am 00:37 Cloudy with Nearby Thunderstorms 69 20.6 64 17.8 84 84 ENE 8 13 29.91 1013 10 16 0.03 0.76
12:53 am 00:53 Cloudy with Nearby Thunderstorms 70 21.1 65 18.3 84 84 NW 3 6 29.95 1014 10 16 0.03 0.76
1:18 am 01:18 Mostly Cloudy 70 21.1 67 19.4 90 90 N 6 9 29.92 1013 10 16 0.00 0.00
1:53 am 01:53 Mostly Cloudy with Light Rain 70 21.1 67 19.4 90 90 SSE 9 15 29.95 1014 10 16 0.01 0.25
2:15 am 02:15 Cloudy with Light Rain 68 20 66 18.9 93 93 NE 8 13 29.95 1014 10 16 0.01 0.25
2:38 am 02:38 Cloudy with Nearby Thunderstorms 70 21 66 19 88 88 S 8 13 29.92 1013 10 16 0.00 0.00
2:50 am 02:50 Cloudy with Light Rain 68 20 66 19 94 94 S 9 15 29.92 1013 10 16 0.03 0.76
2:53 am 02:53 Cloudy with Light Rain 67 19.4 66 18.9 97 97 S 12 19 29.92 1013 10 16 0.03 0.76
3:08 am 03:08 Mostly Cloudy 67 19.4 65 18.3 93 93 SSE 13 20 29.88 1012 10 16 0.00 0.00
3:34 am 03:34 Mostly Cloudy with Light Rain 66 18.9 66 18.9 100 100 SE 3 6 29.88 1012 10 16 0.00 0.00
3:45 am 03:45 Mostly Cloudy 66 18.9 66 18.9 100 100 S 3 6 29.88 1012 10 16 0.00 0.00
3:53 am 03:53 Partly Cloudy 66 18.9 65 18.3 96 96 SE 7 11 29.87 1012 10 16 0.00 0.00
4:53 am 04:53 Clear 66 18.9 64 17.8 93 93 NNE 5 7 29.89 1012 10 16 0.00 0.00
5:38 am 05:38 Partly Cloudy 66 18.9 64 17.8 93 93 NNE 8 13 29.90 1013 8 13 0.00 0.00
5:53 am 05:53 Mostly Cloudy 66 18.9 64 17.8 93 93 N 12 19 29.93 1014 9 14 0.00 0.00
6:27 am 06:27 Cloudy 66 18.9 63 17.2 90 90 NNE 7 11 29.96 1015 10 16 0.00 0.00
6:49 am 06:49 Partly Cloudy 66 19 64 18 94 94 N 6 9 29.96 1015 10 16 0.00 0.00
6:53 am 06:53 Mostly Sunny 68 20 64 17.8 87 87 N 7 11 29.97 1015 10 16 0.00 0.00
7:53 am 07:53 Sunny with Mist and Fog 68 20 65 18.3 90 90 N 6 9 29.99 1016 5 8 0.00 0.00
8:53 am 08:53 Sunny 70 21.1 65 18.3 84 84 E 5 7 29.97 1015 10 16 0.00 0.00
9:53 am 09:53 Sunny 73 22.8 64 17.8 74 74 WNW 6 9 29.98 1015 10 16 0.00 0.00
10:53 am 10:53 Partly Cloudy 76 24.4 65 18.3 69 69 NW 10 17 29.98 1015 10 16 0.00 0.00
11:53 am 11:53 Partly Cloudy 76 24.4 65 18.3 69 69 NW 9 15 29.98 1015 10 16 0.00 0.00
12:53 pm 12:53 Mostly Sunny 80 26.7 67 19.4 64 64 N 10 17 29.97 1015 10 16 0.00 0.00
1:53 pm 13:53 Mostly Sunny 80 26.7 67 19.4 64 64 NNE 8 13 29.96 1015 10 16 0.00 0.00
2:41 pm 14:41 Mostly Cloudy 82 27.8 67 19.4 60 60 NNE 8 13 29.89 1012 10 16 0.00 0.00
2:53 pm 14:53 Mostly Cloudy 81 27.2 67 19.4 62 62 NE 9 15 29.96 1015 10 16 0.00 0.00
3:53 pm 15:53 Partly Cloudy 83 28.3 67 19.4 59 59 NNE 7 11 29.95 1014 10 16 0.00 0.00
4:53 pm 16:53 Sunny 84 28.9 67 19.4 57 57 NNE 6 9 29.94 1014 10 16 0.00 0.00
5:53 pm 17:53 Sunny 83 28.3 66 18.9 57 57 NE 5 7 29.93 1014 10 16 0.00 0.00
6:53 pm 18:53 Sunny 82 27.8 67 19.4 60 60 NNE 6 9 29.93 1014 10 16 0.00 0.00
7:53 pm 19:53 Sunny 79 26.1 68 20 69 69 NE 5 7 29.94 1014 10 16 0.00 0.00
8:53 pm 20:53 Sunny 75 23.9 68 20 79 79 NE 5 7 29.96 1015 10 16 0.00 0.00
9:53 pm 21:53 Clear 74 23.3 66 18.9 76 76 NE 5 7 29.98 1015 10 16 0.00 0.00
10:53 pm 22:53 Clear 73 22.8 66 18.9 79 79 ENE 3 6 29.99 1016 10 16 0.00 0.00
11:53 pm 23:53 Clear 72 22.2 65 18.3 79 79 ENE 3 6 30.00 1016 10 16 0.00 0.00

Powered by AerisWeather